| time (UTC) | temp F | wind direction | speed knots | gust knots | rain 1hr in | rain 24hr in | rain mn in | humidity % | barometer mb |
| 20260507002913 | 48 | 282 | 0.0 | 0.0 | 0.00 | 0.00 | 0.55 | 96 | 1012.0 |
| 20260507002403 | 47 | 0 | 0.0 | 0.0 | 0.00 | 0.00 | 0.55 | 96 | 1011.9 |
| 20260507001904 | 47 | 282 | 0.0 | 0.0 | 0.00 | 0.00 | 0.55 | 96 | 1011.9 |
| 20260507001404 | 47 | 282 | 0.0 | 1.7 | 0.00 | 0.00 | 0.55 | 96 | 1011.8 |
| 20260507000903 | 47 | 282 | 0.0 | 0.0 | 0.00 | 0.00 | 0.55 | 96 | 1011.8 |
| 20260507000405 | 47 | 282 | 0.0 | 0.0 | 0.00 | 0.00 | 0.55 | 97 | 1011.8 |
| 20260506235904 | 47 | 0 | 0.0 | 0.0 | 0.00 | 0.00 | 0.55 | 97 | 1011.8 |
| 20260506235403 | 47 | 0 | 0.0 | 0.0 | 0.00 | 0.00 | 0.55 | 97 | 1011.8 |
| 20260506234903 | 47 | 0 | 0.0 | 0.0 | 0.00 | 0.00 | 0.55 | 97 | 1011.8 |
| 20260506234403 | 47 | 282 | 0.0 | 0.0 | 0.00 | 0.00 | 0.55 | 97 | 1011.8 |
| 20260506233904 | 47 | 282 | 0.0 | 0.0 | 0.00 | 0.00 | 0.55 | 97 | 1011.8 |
| 20260506233403 | 47 | 282 | 0.0 | 0.0 | 0.00 | 0.00 | 0.55 | 97 | 1011.8 |
| 20260506232903 | 47 | 282 | 0.0 | 0.0 | 0.00 | 0.00 | 0.55 | 97 | 1011.7 |
| 20260506232414 | 47 | 282 | 0.0 | 0.0 | 0.00 | 0.00 | 0.55 | 97 | 1011.7 |
| 20260506231913 | 47 | 282 | 0.0 | 0.0 | 0.00 | 0.00 | 0.55 | 97 | 1011.7 |
| 20260506231403 | 47 | 282 | 0.0 | 0.0 | 0.00 | 0.00 | 0.55 | 97 | 1011.7 |
| 20260506230903 | 47 | 282 | 0.0 | 0.0 | 0.00 | 0.00 | 0.55 | 98 | 1011.7 |
| 20260506230404 | 47 | 282 | 0.0 | 0.0 | 0.00 | 0.00 | 0.55 | 98 | 1011.7 |
| 20260506225903 | 47 | 282 | 0.0 | 0.0 | 0.00 | 0.00 | 0.55 | 98 | 1011.6 |
| 20260506225403 | 46 | 282 | 0.0 | 0.0 | 0.00 | 0.00 | 0.55 | 98 | 1011.6 |
| 20260506224903 | 46 | 282 | 0.0 | 0.0 | 0.00 | 0.00 | 0.55 | 98 | 1011.5 |
| 20260506224414 | 46 | 282 | 0.0 | 0.0 | 0.00 | 0.00 | 0.55 | 98 | 1011.5 |
| 20260506223903 | 46 | 282 | 0.0 | 0.0 | 0.00 | 0.00 | 0.55 | 98 | 1011.5 |
| 20260506223403 | 46 | 282 | 0.0 | 0.9 | 0.00 | 0.00 | 0.55 | 98 | 1011.5 |
| 20260506222903 | 46 | 282 | 0.0 | 0.0 | 0.00 | 0.00 | 0.55 | 98 | 1011.5 |
| 20260506222404 | 46 | 282 | 0.0 | 0.0 | 0.00 | 0.00 | 0.55 | 98 | 1011.5 |
| 20260506221913 | 46 | 282 | 0.0 | 0.0 | 0.00 | 0.00 | 0.55 | 98 | 1011.4 |
| 20260506221403 | 46 | 282 | 0.0 | 0.0 | 0.00 | 0.00 | 0.55 | 98 | 1011.3 |
| 20260506220904 | 46 | 282 | 0.0 | 0.0 | 0.00 | 0.00 | 0.55 | 98 | 1011.3 |
| 20260506220403 | 46 | 282 | 0.0 | 0.0 | 0.00 | 0.00 | 0.55 | 98 | 1011.3 |
| 20260506215903 | 46 | 282 | 0.0 | 0.0 | 0.00 | 0.00 | 0.55 | 98 | 1011.3 |
| 20260506215403 | 46 | 282 | 0.0 | 0.0 | 0.00 | 0.00 | 0.55 | 99 | 1011.3 |
| 20260506214914 | 46 | 282 | 0.0 | 0.0 | 0.00 | 0.00 | 0.55 | 98 | 1011.3 |
| 20260506214403 | 46 | 282 | 0.0 | 0.0 | 0.00 | 0.00 | 0.55 | 99 | 1011.3 |
| 20260506213903 | 46 | 282 | 0.0 | 0.0 | 0.00 | 0.00 | 0.55 | 98 | 1011.3 |
| 20260506213403 | 46 | 282 | 0.0 | 0.0 | 0.00 | 0.00 | 0.55 | 98 | 1011.2 |
| 20260506212904 | 46 | 282 | 0.0 | 0.0 | 0.00 | 0.00 | 0.55 | 98 | 1011.3 |
| 20260506212403 | 46 | 282 | 0.0 | 0.0 | 0.00 | 0.00 | 0.55 | 98 | 1011.2 |
| 20260506211903 | 46 | 282 | 0.0 | 0.0 | 0.00 | 0.00 | 0.55 | 98 | 1011.2 |
| 20260506211403 | 46 | 282 | 0.0 | 0.0 | 0.00 | 0.00 | 0.55 | 98 | 1011.2 |
| 20260506210903 | 47 | 282 | 0.0 | 0.0 | 0.00 | 0.00 | 0.55 | 98 | 1011.2 |
| 20260506210403 | 47 | 282 | 0.0 | 0.0 | 0.00 | 0.00 | 0.55 | 98 | 1011.1 |
| 20260506205903 | 47 | 282 | 0.0 | 0.0 | 0.00 | 0.00 | 0.55 | 98 | 1011.1 |
| 20260506205404 | 47 | 282 | 0.0 | 0.0 | 0.00 | 0.00 | 0.55 | 98 | 1011.0 |
| 20260506204904 | 47 | 282 | 0.0 | 0.0 | 0.00 | 0.00 | 0.55 | 98 | 1011.0 |
| 20260506204403 | 47 | 282 | 0.0 | 0.0 | 0.00 | 0.00 | 0.55 | 97 | 1011.0 |
| 20260506203903 | 48 | 282 | 0.0 | 0.0 | 0.00 | 0.00 | 0.55 | 97 | 1011.0 |
| 20260506203414 | 48 | 282 | 0.0 | 0.0 | 0.00 | 0.00 | 0.55 | 97 | 1011.1 |
| 20260506202903 | 48 | 282 | 0.0 | 0.0 | 0.00 | 0.00 | 0.55 | 97 | 1011.1 |
| 20260506202403 | 48 | 282 | 0.0 | 0.0 | 0.00 | 0.00 | 0.55 | 97 | 1011.0 |
| 20260506201903 | 48 | 282 | 0.0 | 0.0 | 0.00 | 0.00 | 0.55 | 97 | 1011.0 |
| 20260506201404 | 48 | 282 | 0.0 | 0.0 | 0.00 | 0.00 | 0.55 | 97 | 1010.9 |
| 20260506200903 | 48 | 282 | 0.0 | 0.0 | 0.00 | 0.00 | 0.55 | 97 | 1011.0 |
| 20260506200403 | 48 | 279 | 0.0 | 0.0 | 0.00 | 0.00 | 0.55 | 97 | 1010.9 |
| 20260506195914 | 48 | 278 | 0.0 | 0.0 | 0.00 | 0.00 | 0.55 | 97 | 1010.9 |
| 20260506195403 | 49 | 276 | 0.0 | 0.9 | 0.00 | 0.00 | 0.55 | 97 | 1010.8 |
| 20260506194903 | 48 | 276 | 0.0 | 0.0 | 0.00 | 0.00 | 0.55 | 97 | 1010.7 |
| 20260506194403 | 48 | 260 | 0.0 | 1.7 | 0.00 | 0.00 | 0.55 | 98 | 1010.6 |
| 20260506193904 | 48 | 242 | 0.0 | 1.7 | 0.00 | 0.00 | 0.55 | 98 | 1010.6 |
| 20260506193403 | 48 | 123 | 0.9 | 1.7 | 0.00 | 0.00 | 0.55 | 98 | 1010.5 |
| 20260506192903 | 48 | 48 | 0.0 | 0.0 | 0.00 | 0.00 | 0.55 | 98 | 1010.5 |
| 20260506192414 | 49 | 48 | 0.0 | 0.0 | 0.00 | 0.00 | 0.55 | 98 | 1010.5 |
| 20260506191903 | 49 | 48 | 0.9 | 1.7 | 0.00 | 0.00 | 0.55 | 98 | 1010.4 |
| 20260506191403 | 49 | 48 | 0.0 | 0.0 | 0.00 | 0.00 | 0.55 | 98 | 1010.4 |
| 20260506190903 | 49 | 48 | 0.0 | 0.0 | 0.00 | 0.00 | 0.55 | 98 | 1010.4 |
| 20260506190404 | 49 | 48 | 0.9 | 0.9 | 0.00 | 0.00 | 0.55 | 98 | 1010.3 |
| 20260506185904 | 49 | 48 | 0.0 | 1.7 | 0.00 | 0.00 | 0.55 | 98 | 1010.3 |
| 20260506185413 | 49 | 48 | 0.9 | 1.7 | 0.00 | 0.00 | 0.55 | 98 | 1010.2 |
| 20260506184903 | 49 | 48 | 0.0 | 1.7 | 0.00 | 0.00 | 0.55 | 98 | 1010.2 |
| 20260506184404 | 49 | 48 | 0.0 | 0.0 | 0.00 | 0.00 | 0.55 | 98 | 1010.1 |
| 20260506183903 | 49 | 48 | 1.7 | 1.7 | 0.00 | 0.00 | 0.55 | 98 | 1010.0 |
| 20260506183403 | 49 | 48 | 0.9 | 1.7 | 0.00 | 0.00 | 0.55 | 98 | 1010.0 |
| 20260506182903 | 48 | 48 | 0.0 | 1.7 | 0.00 | 0.00 | 0.55 | 98 | 1010.0 |
| 20260506182404 | 48 | 48 | 0.0 | 1.7 | 0.00 | 0.00 | 0.55 | 99 | 1009.9 |
| 20260506181903 | 49 | 48 | 0.0 | 0.0 | 0.00 | 0.00 | 0.55 | 98 | 1009.8 |
| 20260506181403 | 49 | 119 | 0.0 | 1.7 | 0.00 | 0.00 | 0.55 | 98 | 1009.8 |
| 20260506180914 | 49 | 324 | 0.0 | 0.0 | 0.00 | 0.00 | 0.55 | 98 | 1009.8 |
| 20260506180404 | 49 | 324 | 0.0 | 1.7 | 0.00 | 0.00 | 0.55 | 98 | 1009.7 |
| 20260506175903 | 49 | 321 | 0.0 | 2.6 | 0.00 | 0.00 | 0.55 | 98 | 1009.7 |
| 20260506175403 | 49 | 292 | 0.9 | 1.7 | 0.00 | 0.00 | 0.55 | 98 | 1009.6 |
| 20260506174904 | 49 | 227 | 0.9 | 2.6 | 0.00 | 0.00 | 0.55 | 97 | 1009.5 |
| 20260506174403 | 49 | 246 | 0.9 | 1.7 | 0.00 | 0.00 | 0.55 | 97 | 1009.5 |
| 20260506173913 | 49 | 354 | 0.0 | 0.0 | 0.00 | 0.00 | 0.55 | 96 | 1009.4 |
| 20260506173413 | 49 | 354 | 0.9 | 2.6 | 0.00 | 0.00 | 0.55 | 96 | 1009.3 |
| 20260506172914 | 49 | 264 | 0.0 | 1.7 | 0.00 | 0.00 | 0.55 | 96 | 1009.3 |
| 20260506172403 | 49 | 334 | 0.9 | 3.5 | 0.00 | 0.00 | 0.55 | 96 | 1009.3 |
| 20260506171913 | 49 | 233 | 0.9 | 1.7 | 0.00 | 0.00 | 0.55 | 96 | 1009.2 |
| 20260506171403 | 49 | 200 | 0.0 | 1.7 | 0.00 | 0.00 | 0.55 | 96 | 1009.1 |
| 20260506170904 | 49 | 250 | 0.9 | 1.7 | 0.00 | 0.00 | 0.55 | 96 | 1009.0 |
| 20260506170403 | 49 | 249 | 0.0 | 1.7 | 0.00 | 0.00 | 0.55 | 96 | 1009.0 |
| 20260506165903 | 49 | 250 | 0.0 | 0.0 | 0.00 | 0.00 | 0.55 | 96 | 1009.0 |
| 20260506165404 | 49 | 249 | 0.0 | 1.7 | 0.00 | 0.00 | 0.55 | 96 | 1009.0 |
| 20260506164903 | 49 | 250 | 0.0 | 1.7 | 0.00 | 0.00 | 0.55 | 96 | 1009.0 |
| 20260506164403 | 49 | 208 | 0.9 | 2.6 | 0.00 | 0.00 | 0.55 | 96 | 1009.0 |
| 20260506163913 | 49 | 192 | 0.9 | 1.7 | 0.00 | 0.00 | 0.55 | 96 | 1008.9 |
| 20260506163404 | 49 | 233 | 0.0 | 1.7 | 0.00 | 0.00 | 0.55 | 96 | 1008.9 |
| 20260506162904 | 49 | 294 | 0.0 | 1.7 | 0.00 | 0.00 | 0.55 | 96 | 1008.9 |
| 20260506162403 | 49 | 263 | 0.9 | 2.6 | 0.00 | 0.00 | 0.55 | 96 | 1008.9 |
| 20260506161903 | 49 | 320 | 0.0 | 2.6 | 0.00 | 0.00 | 0.55 | 96 | 1009.0 |
| 20260506161404 | 49 | 324 | 0.0 | 2.6 | 0.00 | 0.00 | 0.55 | 96 | 1008.9 |
| 20260506160903 | 49 | 324 | 0.0 | 1.7 | 0.00 | 0.00 | 0.55 | 96 | 1008.9 |
| 20260506160403 | 49 | 324 | 0.0 | 0.9 | 0.00 | 0.00 | 0.55 | 97 | 1008.9 |
| 20260506155903 | 49 | 325 | 0.9 | 3.5 | 0.00 | 0.00 | 0.55 | 96 | 1008.9 |
| 20260506155403 | 49 | 326 | 0.9 | 1.7 | 0.00 | 0.00 | 0.55 | 96 | 1008.9 |
| 20260506154903 | 49 | 326 | 0.9 | 1.7 | 0.00 | 0.00 | 0.55 | 97 | 1008.8 |
| 20260506154403 | 49 | 278 | 0.9 | 5.2 | 0.00 | 0.00 | 0.55 | 97 | 1008.8 |
| 20260506153904 | 49 | 171 | 1.7 | 5.2 | 0.00 | 0.00 | 0.55 | 97 | 1008.8 |
| 20260506153403 | 49 | 316 | 0.9 | 3.5 | 0.00 | 0.00 | 0.55 | 97 | 1008.8 |
| 20260506152903 | 49 | 311 | 0.9 | 2.6 | 0.00 | 0.00 | 0.55 | 97 | 1008.8 |
| 20260506152403 | 49 | 304 | 0.9 | 2.6 | 0.00 | 0.00 | 0.55 | 97 | 1008.8 |
| 20260506151904 | 49 | 303 | 0.0 | 2.6 | 0.00 | 0.00 | 0.55 | 97 | 1008.8 |
| 20260506151404 | 49 | 291 | 0.9 | 1.7 | 0.00 | 0.00 | 0.55 | 97 | 1008.7 |
| 20260506150903 | 49 | 315 | 0.9 | 1.7 | 0.00 | 0.00 | 0.55 | 97 | 1008.7 |
| 20260506150403 | 49 | 274 | 1.7 | 5.2 | 0.00 | 0.00 | 0.55 | 97 | 1008.7 |
| 20260506145904 | 49 | 312 | 0.9 | 2.6 | 0.00 | 0.00 | 0.55 | 97 | 1008.7 |
| 20260506145403 | 49 | 335 | 0.9 | 1.7 | 0.00 | 0.00 | 0.55 | 97 | 1008.7 |
| 20260506144903 | 49 | 329 | 0.9 | 2.6 | 0.00 | 0.00 | 0.55 | 97 | 1008.7 |
| 20260506144403 | 49 | 279 | 0.0 | 1.7 | 0.00 | 0.00 | 0.55 | 97 | 1008.7 |
| 20260506143903 | 50 | 281 | 0.0 | 1.7 | 0.00 | 0.00 | 0.55 | 96 | 1008.6 |
| 20260506143403 | 50 | 296 | 0.9 | 2.6 | 0.00 | 0.00 | 0.55 | 96 | 1008.6 |
| 20260506142913 | 50 | 310 | 0.9 | 2.6 | 0.00 | 0.00 | 0.55 | 97 | 1008.6 |
| 20260506142404 | 50 | 247 | 0.9 | 3.5 | 0.00 | 0.00 | 0.55 | 97 | 1008.6 |
| 20260506141903 | 50 | 271 | 0.9 | 2.6 | 0.00 | 0.00 | 0.55 | 96 | 1008.5 |
| 20260506141403 | 50 | 263 | 0.9 | 3.5 | 0.00 | 0.00 | 0.55 | 96 | 1008.5 |
| 20260506140903 | 50 | 230 | 0.9 | 1.7 | 0.00 | 0.00 | 0.55 | 96 | 1008.5 |
| 20260506140404 | 50 | 281 | 0.0 | 1.7 | 0.00 | 0.00 | 0.55 | 96 | 1008.5 |
| 20260506135903 | 50 | 260 | 0.9 | 3.5 | 0.02 | 0.00 | 0.55 | 96 | 1008.4 |
| 20260506135403 | 50 | 179 | 0.9 | 1.7 | 0.02 | 0.00 | 0.55 | 96 | 1008.4 |
| 20260506134904 | 50 | 171 | 1.7 | 2.6 | 0.02 | 0.00 | 0.55 | 96 | 1008.4 |
| 20260506134403 | 50 | 138 | 0.0 | 1.7 | 0.02 | 0.00 | 0.55 | 97 | 1008.5 |
| 20260506133903 | 49 | 267 | 0.9 | 1.7 | 0.02 | 0.00 | 0.55 | 98 | 1008.5 |
| 20260506133413 | 49 | 316 | 0.0 | 1.7 | 0.02 | 0.00 | 0.55 | 98 | 1008.4 |
| 20260506132904 | 49 | 296 | 0.9 | 2.6 | 0.02 | 0.00 | 0.55 | 98 | 1008.4 |
| 20260506132403 | 49 | 163 | 0.9 | 4.3 | 0.02 | 0.00 | 0.55 | 98 | 1008.5 |
| 20260506131903 | 49 | 171 | 0.0 | 3.5 | 0.02 | 0.00 | 0.55 | 97 | 1008.5 |
| 20260506131404 | 49 | 264 | 1.7 | 4.3 | 0.02 | 0.00 | 0.55 | 97 | 1008.4 |
| 20260506130913 | 49 | 226 | 1.7 | 3.5 | 0.02 | 0.00 | 0.55 | 97 | 1008.4 |
| 20260506130403 | 49 | 54 | 0.0 | 0.0 | 0.02 | 0.00 | 0.55 | 97 | 1008.3 |
| 20260506125903 | 49 | 54 | 0.0 | 1.7 | 0.00 | 0.00 | 0.54 | 97 | 1008.3 |
| 20260506125404 | 49 | 54 | 0.0 | 1.7 | 0.00 | 0.00 | 0.54 | 97 | 1008.2 |
| 20260506124903 | 49 | 97 | 0.9 | 3.5 | 0.02 | 0.00 | 0.54 | 96 | 1008.2 |
| 20260506124403 | 49 | 234 | 0.0 | 1.7 | 0.02 | 0.00 | 0.54 | 96 | 1008.2 |
| 20260506123904 | 49 | 226 | 0.9 | 1.7 | 0.02 | 0.00 | 0.54 | 97 | 1008.2 |
| 20260506123404 | 49 | 54 | 0.9 | 2.6 | 0.02 | 0.00 | 0.54 | 97 | 1008.2 |
| 20260506122903 | 49 | 54 | 0.9 | 2.6 | 0.02 | 0.00 | 0.54 | 97 | 1008.2 |
| 20260506122403 | 49 | 43 | 0.9 | 1.7 | 0.02 | 0.00 | 0.54 | 96 | 1008.1 |
| 20260506121904 | 49 | 70 | 0.9 | 1.7 | 0.02 | 0.00 | 0.54 | 97 | 1008.0 |
| 20260506121403 | 49 | 310 | 0.9 | 3.5 | 0.02 | 0.00 | 0.54 | 97 | 1008.0 |
| 20260506120903 | 49 | 154 | 0.9 | 1.7 | 0.02 | 0.00 | 0.54 | 97 | 1008.0 |
| 20260506120414 | 49 | 48 | 0.9 | 2.6 | 0.02 | 0.00 | 0.54 | 97 | 1008.0 |
| 20260506115903 | 49 | 68 | 0.9 | 2.6 | 0.02 | 0.00 | 0.54 | 97 | 1008.0 |
| 20260506115403 | 49 | 36 | 0.9 | 1.7 | 0.02 | 0.00 | 0.54 | 97 | 1007.9 |
| 20260506114903 | 49 | 36 | 0.0 | 1.7 | 0.00 | 0.00 | 0.52 | 97 | 1007.8 |
| 20260506114413 | 49 | 59 | 0.0 | 1.7 | 0.00 | 0.00 | 0.52 | 97 | 1007.8 |
| 20260506113904 | 49 | 72 | 1.7 | 4.3 | 0.02 | 0.00 | 0.52 | 96 | 1007.9 |
| 20260506113403 | 49 | 207 | 1.7 | 3.5 | 0.02 | 0.00 | 0.52 | 96 | 1007.9 |
| 20260506112904 | 49 | 101 | 1.7 | 3.5 | 0.02 | 0.00 | 0.52 | 96 | 1007.8 |
| 20260506112403 | 49 | 69 | 1.7 | 5.2 | 0.02 | 0.00 | 0.52 | 96 | 1007.8 |
| 20260506111903 | 48 | 280 | 1.7 | 2.6 | 0.02 | 0.00 | 0.52 | 97 | 1007.8 |
| 20260506111403 | 48 | 324 | 0.9 | 3.5 | 0.02 | 0.00 | 0.52 | 97 | 1007.8 |
| 20260506110903 | 48 | 319 | 0.9 | 4.3 | 0.02 | 0.00 | 0.52 | 97 | 1007.8 |
| 20260506110403 | 48 | 295 | 1.7 | 3.5 | 0.02 | 0.00 | 0.52 | 97 | 1007.8 |
| 20260506105903 | 49 | 180 | 0.0 | 2.6 | 0.03 | 0.00 | 0.52 | 98 | 1007.8 |
| 20260506105404 | 48 | 107 | 0.9 | 3.5 | 0.03 | 0.00 | 0.52 | 97 | 1007.8 |
| 20260506104903 | 49 | 66 | 0.9 | 1.7 | 0.03 | 0.00 | 0.52 | 97 | 1007.8 |
| 20260506104403 | 48 | 116 | 0.9 | 1.7 | 0.03 | 0.00 | 0.52 | 97 | 1007.7 |
| 20260506103904 | 48 | 113 | 0.9 | 2.6 | 0.03 | 0.00 | 0.50 | 98 | 1007.8 |
| 20260506103413 | 48 | 220 | 1.7 | 3.5 | 0.03 | 0.00 | 0.50 | 98 | 1007.7 |
| 20260506102903 | 48 | 274 | 0.9 | 3.5 | 0.03 | 0.00 | 0.50 | 98 | 1007.7 |
| 20260506102403 | 48 | 174 | 1.7 | 5.2 | 0.03 | 0.00 | 0.50 | 98 | 1007.6 |
| 20260506101904 | 49 | 247 | 1.7 | 3.5 | 0.03 | 0.00 | 0.50 | 98 | 1007.6 |
| 20260506101403 | 49 | 192 | 1.7 | 5.2 | 0.05 | 0.00 | 0.50 | 97 | 1007.5 |
| 20260506100903 | 49 | 132 | 1.7 | 3.5 | 0.05 | 0.00 | 0.50 | 97 | 1007.3 |
| 20260506100404 | 49 | 290 | 1.7 | 3.5 | 0.05 | 0.00 | 0.50 | 98 | 1007.3 |
| 20260506095903 | 49 | 330 | 0.0 | 1.7 | 0.03 | 0.00 | 0.49 | 98 | 1007.2 |
| 20260506095403 | 49 | 220 | 1.7 | 5.2 | 0.03 | 0.00 | 0.49 | 98 | 1007.2 |
| 20260506094903 | 49 | 44 | 0.9 | 1.7 | 0.03 | 0.00 | 0.49 | 98 | 1007.2 |
| 20260506094404 | 49 | 203 | 0.9 | 2.6 | 0.03 | 0.00 | 0.49 | 98 | 1007.1 |
| 20260506093903 | 49 | 264 | 0.9 | 2.6 | 0.02 | 0.00 | 0.47 | 98 | 1007.0 |
| 20260506093403 | 49 | 180 | 0.9 | 2.6 | 0.02 | 0.00 | 0.47 | 98 | 1007.0 |
| 20260506092904 | 49 | 337 | 0.9 | 3.5 | 0.03 | 0.00 | 0.47 | 98 | 1007.0 |
| 20260506092403 | 49 | 80 | 0.9 | 2.6 | 0.03 | 0.00 | 0.47 | 98 | 1006.9 |
| 20260506091903 | 50 | 94 | 0.9 | 5.2 | 0.03 | 0.00 | 0.47 | 98 | 1006.9 |
| 20260506091403 | 50 | 329 | 1.7 | 4.3 | 0.02 | 0.00 | 0.46 | 98 | 1006.8 |
| 20260506090904 | 50 | 323 | 0.9 | 1.7 | 0.02 | 0.00 | 0.46 | 98 | 1006.8 |
| 20260506090403 | 50 | 272 | 0.9 | 2.6 | 0.02 | 0.00 | 0.46 | 98 | 1006.8 |
| 20260506085903 | 50 | 213 | 0.9 | 1.7 | 0.02 | 0.00 | 0.46 | 98 | 1006.7 |
| 20260506085404 | 50 | 301 | 0.9 | 2.6 | 0.02 | 0.00 | 0.46 | 99 | 1006.8 |
| 20260506084903 | 50 | 302 | 1.7 | 3.5 | 0.03 | 0.00 | 0.46 | 99 | 1006.7 |
| 20260506084403 | 50 | 320 | 1.7 | 3.5 | 0.03 | 0.00 | 0.46 | 99 | 1006.6 |
| 20260506083903 | 50 | 270 | 1.7 | 3.5 | 0.03 | 0.00 | 0.46 | 99 | 1006.6 |
| 20260506083404 | 50 | 163 | 0.9 | 2.6 | 0.03 | 0.00 | 0.46 | 99 | 1006.5 |
| 20260506082908 | 50 | 154 | 0.9 | 2.6 | 0.02 | 0.00 | 0.44 | 99 | 1006.5 |
| 20260506082413 | 50 | 304 | 0.9 | 3.5 | 0.03 | 0.00 | 0.44 | 99 | 1006.5 |
| 20260506081904 | 49 | 304 | 1.7 | 5.2 | 0.03 | 0.00 | 0.44 | 99 | 1006.5 |
| 20260506081403 | 50 | 247 | 0.9 | 2.6 | 0.03 | 0.00 | 0.44 | 99 | 1006.5 |
| 20260506080903 | 49 | 187 | 0.9 | 2.6 | 0.05 | 0.00 | 0.44 | 99 | 1006.4 |
| 20260506080403 | 49 | 74 | 0.9 | 2.6 | 0.05 | 0.00 | 0.44 | 99 | 1006.5 |
| 20260506073403 | 49 | 197 | 1.7 | 3.5 | 0.06 | 0.00 | 0.43 | 99 | 1006.4 |
| 20260506072914 | 49 | 309 | 0.9 | 3.5 | 0.06 | 0.00 | 0.43 | 99 | 1006.4 |
| 20260506072403 | 49 | 312 | 0.9 | 1.7 | 0.06 | 0.00 | 0.41 | 99 | 1006.4 |
| 20260506071913 | 49 | 312 | 0.9 | 2.6 | 0.06 | 0.00 | 0.41 | 99 | 1006.4 |
| 20260506071413 | 49 | 312 | 0.9 | 2.6 | 0.06 | 0.00 | 0.41 | 99 | 1006.4 |
| 20260506070903 | 49 | 312 | 0.0 | 1.7 | 0.05 | 0.00 | 0.39 | 99 | 1006.4 |
| 20260506070403 | 49 | 249 | 1.7 | 4.3 | 0.05 | 0.00 | 0.39 | 99 | 1006.4 |
| 20260506062403 | 49 | 327 | 0.9 | 2.6 | 0.05 | 0.00 | 0.35 | 99 | 1006.2 |
| 20260506061904 | 49 | 336 | 0.0 | 1.7 | 0.05 | 0.00 | 0.35 | 99 | 1006.2 |
| 20260506061403 | 49 | 184 | 0.9 | 1.7 | 0.05 | 0.00 | 0.35 | 99 | 1006.2 |
| 20260506060903 | 49 | 313 | 1.7 | 5.2 | 0.05 | 0.00 | 0.35 | 99 | 1006.1 |
| 20260506060404 | 49 | 259 | 1.7 | 2.6 | 0.05 | 0.00 | 0.35 | 99 | 1006.1 |
| 20260506051404 | 49 | 68 | 0.0 | 1.7 | 0.03 | 0.00 | 0.30 | 99 | 1006.0 |
| 20260506050914 | 49 | 192 | 0.9 | 1.7 | 0.03 | 0.00 | 0.30 | 99 | 1006.0 |
| 20260506050403 | 49 | 329 | 0.9 | 1.7 | 0.03 | 0.00 | 0.30 | 99 | 1005.9 |
| 20260506044903 | 49 | 252 | 0.9 | 3.5 | 0.03 | 0.00 | 0.28 | 99 | 1005.9 |
| 20260506044403 | 49 | 83 | 0.9 | 1.7 | 0.03 | 0.00 | 0.28 | 99 | 1005.9 |
| 20260506043903 | 49 | 60 | 0.0 | 1.7 | 0.05 | 0.00 | 0.28 | 99 | 1005.9 |
| 20260506043404 | 49 | 85 | 0.9 | 2.6 | 0.03 | 0.00 | 0.27 | 99 | 1005.8 |
| 20260506042903 | 49 | 120 | 1.7 | 3.5 | 0.05 | 0.00 | 0.27 | 99 | 1005.9 |
| 20260506042413 | 49 | 317 | 0.9 | 1.7 | 0.05 | 0.00 | 0.27 | 99 | 1005.9 |
| 20260506041903 | 49 | 306 | 0.9 | 1.7 | 0.05 | 0.00 | 0.27 | 99 | 1005.9 |
| 20260506041404 | 49 | 191 | 0.9 | 3.5 | 0.06 | 0.00 | 0.27 | 99 | 1005.9 |
| 20260506040903 | 49 | 97 | 0.9 | 2.6 | 0.06 | 0.00 | 0.27 | 99 | 1005.8 |
| 20260506040413 | 49 | 340 | 0.9 | 2.6 | 0.06 | 0.00 | 0.27 | 99 | 1005.9 |
| 20260506035904 | 49 | 346 | 0.9 | 2.6 | 0.06 | 0.00 | 0.25 | 99 | 1005.9 |
| 20260506035403 | 49 | 196 | 0.9 | 3.5 | 0.06 | 0.00 | 0.25 | 99 | 1005.9 |
| 20260506034903 | 49 | 161 | 0.9 | 2.6 | 0.08 | 0.00 | 0.25 | 99 | 1005.9 |
| 20260506034413 | 49 | 292 | 0.9 | 2.6 | 0.06 | 0.00 | 0.24 | 99 | 1005.9 |
| 20260506033904 | 49 | 304 | 0.9 | 1.7 | 0.06 | 0.00 | 0.24 | 99 | 1006.0 |
| 20260506033404 | 49 | 312 | 0.0 | 2.6 | 0.06 | 0.00 | 0.24 | 99 | 1006.0 |
| 20260506032903 | 48 | 310 | 0.0 | 1.7 | 0.06 | 0.00 | 0.22 | 99 | 1006.0 |
| 20260506032403 | 48 | 156 | 0.9 | 3.5 | 0.06 | 0.00 | 0.22 | 99 | 1006.0 |
| 20260506031904 | 49 | 148 | 0.0 | 0.9 | 0.06 | 0.00 | 0.22 | 99 | 1006.1 |
| 20260506031403 | 48 | 113 | 0.9 | 1.7 | 0.06 | 0.00 | 0.20 | 99 | 1006.1 |
| 20260506030903 | 48 | 328 | 1.7 | 4.3 | 0.06 | 0.00 | 0.20 | 99 | 1006.1 |
| 20260506030403 | 48 | 341 | 0.0 | 1.7 | 0.08 | 0.00 | 0.20 | 99 | 1006.2 |
| 20260506025904 | 48 | 267 | 1.7 | 2.6 | 0.08 | 0.00 | 0.19 | 99 | 1006.3 |
| 20260506025403 | 48 | 162 | 0.9 | 1.7 | 0.08 | 0.00 | 0.19 | 99 | 1006.3 |
| 20260506024903 | 48 | 110 | 0.9 | 1.7 | 0.06 | 0.00 | 0.17 | 99 | 1006.3 |
| 20260506024404 | 48 | 138 | 0.9 | 1.7 | 0.08 | 0.00 | 0.17 | 99 | 1006.3 |
| 20260506023904 | 48 | 321 | 0.9 | 1.7 | 0.08 | 0.00 | 0.17 | 99 | 1006.3 |
| 20260506023403 | 48 | 87 | 0.0 | 1.7 | 0.08 | 0.00 | 0.17 | 99 | 1006.4 |
| 20260506022903 | 48 | 27 | 0.0 | 1.7 | 0.06 | 0.00 | 0.16 | 99 | 1006.4 |
| 20260506022404 | 48 | 31 | 0.9 | 1.7 | 0.08 | 0.00 | 0.16 | 99 | 1006.4 |
| 20260506021903 | 48 | 35 | 0.9 | 1.7 | 0.08 | 0.00 | 0.16 | 99 | 1006.4 |
| 20260506021403 | 48 | 90 | 0.0 | 1.7 | 0.06 | 0.00 | 0.14 | 99 | 1006.4 |
| 20260506020903 | 48 | 333 | 1.7 | 3.5 | 0.06 | 0.00 | 0.13 | 99 | 1006.5 |
| 20260506020404 | 48 | 290 | 0.9 | 2.6 | 0.06 | 0.00 | 0.13 | 99 | 1006.5 |
| 20260506015903 | 48 | 155 | 0.0 | 1.7 | 0.05 | 0.00 | 0.11 | 99 | 1006.5 |
| 20260506015403 | 48 | 85 | 0.9 | 1.7 | 0.05 | 0.00 | 0.11 | 99 | 1006.5 |
| 20260506014904 | 48 | 89 | 0.9 | 1.7 | 0.06 | 0.00 | 0.11 | 99 | 1006.5 |
| 20260506014403 | 49 | 325 | 0.0 | 1.7 | 0.05 | 0.00 | 0.09 | 99 | 1006.5 |
| 20260506013903 | 49 | 315 | 0.9 | 3.5 | 0.05 | 0.00 | 0.09 | 99 | 1006.6 |
| 20260506013403 | 49 | 212 | 0.0 | 1.7 | 0.05 | 0.00 | 0.09 | 99 | 1006.6 |
| 20260506012903 | 49 | 12 | 0.9 | 1.7 | 0.05 | 0.00 | 0.09 | 99 | 1006.7 |
| 20260506012403 | 49 | 221 | 0.9 | 3.5 | 0.03 | 0.00 | 0.08 | 99 | 1006.7 |
| 20260506011903 | 49 | 262 | 0.0 | 1.7 | 0.03 | 0.00 | 0.08 | 99 | 1006.6 |
| 20260506011404 | 49 | 260 | 0.0 | 1.7 | 0.05 | 0.00 | 0.08 | 99 | 1006.7 |
| 20260506010903 | 49 | 256 | 0.9 | 1.7 | 0.03 | 0.00 | 0.06 | 99 | 1006.7 |
| 20260506010403 | 49 | 311 | 0.9 | 3.5 | 0.03 | 0.00 | 0.06 | 99 | 1006.7 |
| 20260506005904 | 49 | 327 | 0.0 | 2.6 | 0.03 | 0.00 | 0.06 | 99 | 1006.8 |
| 20260506005403 | 49 | 328 | 0.9 | 1.7 | 0.03 | 0.00 | 0.06 | 99 | 1006.8 |
| 20260506004903 | 49 | 318 | 0.0 | 2.6 | 0.02 | 0.00 | 0.05 | 99 | 1006.8 |
| 20260506004403 | 49 | 322 | 0.9 | 2.6 | 0.02 | 0.00 | 0.05 | 99 | 1006.9 |
| 20260506003904 | 49 | 306 | 0.9 | 1.7 | 0.02 | 0.00 | 0.05 | 99 | 1006.9 |
| 20260506003403 | 49 | 303 | 0.9 | 2.6 | 0.02 | 0.00 | 0.05 | 99 | 1006.9 |